Location: *
(50.5492°N, 7.7469°E)
Time: 22:48:03
(UTC+00:00)

STARLINK-74 - Pass Details

Date: 21 October 2019
Orbit: 548 x 551 km, 53.0° (Epoch: 21 November)

Event Time Altitude Azimuth Distance (km) Brightness Sun altitude
Rises 17:56:18 0° 277° (W) 2,718 9.1 -15.1°
Reaches altitude 10° 17:58:34 10° 281° (W) 1,825 7.6 -15.4°
Maximum altitude 18:02:40 60° 2° (N) 632 3.8 -16.1°
Enters shadow 18:04:28 31° 70° (ENE) 984 4.4 -16.4°
